Time,TemperatureF,DewpointF,PressureIn,WindDirection,WindDirectionDegrees,WindSpeedMPH,WindSpeedGustMPH,Humidity,HourlyPrecipIn,Conditions,Clouds,dailyrainin,SolarRadiationWatts/m^2,SoftwareType,DateUTC
2013-11-02 08:52:00,65.0,55.0,-100.00,WNW,291,2.0,7.0,70,0.12,,,0.69,6.000000,,2013-11-02 12:52:00,
2013-11-02 09:02:00,65.0,55.0,-100.00,WNW,291,2.0,7.0,70,0.12,,,0.69,6.000000,,2013-11-02 13:02:00,
2013-11-02 09:12:00,65.0,55.0,-100.00,WNW,291,2.0,7.0,70,0.12,,,0.69,6.000000,,2013-11-02 13:12:00,
2013-11-02 09:22:00,65.0,55.0,-100.00,WNW,291,2.0,7.0,70,0.12,,,0.69,6.000000,,2013-11-02 13:22:00,
2013-11-02 10:52:00,66.0,56.0,-100.00,WSW,253,3.0,8.0,69,0.01,,,0.70,87.000000,,2013-11-02 14:52:00,
2013-11-02 11:02:00,66.0,56.0,-100.00,WSW,253,3.0,8.0,69,0.01,,,0.70,87.000000,,2013-11-02 15:02:00,
2013-11-02 11:11:00,66.0,56.0,-100.00,WSW,253,3.0,8.0,69,0.01,,,0.70,87.000000,,2013-11-02 15:11:00,
2013-11-02 11:22:00,66.0,56.0,-100.00,WSW,253,3.0,8.0,69,0.01,,,0.70,87.000000,,2013-11-02 15:22:00,
2013-11-02 12:54:00,65.0,55.0,-100.00,West,270,3.0,5.0,69,0.02,,,0.72,82.000000,,2013-11-02 16:54:00,
2013-11-02 13:03:00,65.0,55.0,-100.00,West,270,3.0,5.0,69,0.02,,,0.72,82.000000,,2013-11-02 17:03:00,
2013-11-02 13:13:00,65.0,55.0,-100.00,West,270,3.0,5.0,69,0.02,,,0.72,82.000000,,2013-11-02 17:13:00,
2013-11-02 13:22:00,65.0,55.0,-100.00,West,270,3.0,5.0,69,0.02,,,0.72,82.000000,,2013-11-02 17:22:00,
2013-11-02 15:22:00,65.0,53.0,-100.00,West,276,4.0,7.0,65,0.00,,,0.72,143.000000,,2013-11-02 19:22:00,
2013-11-02 15:52:00,65.0,53.0,-100.00,WNW,284,3.0,10.0,64,0.00,,,0.72,173.000000,,2013-11-02 19:52:00,
2013-11-02 16:02:00,65.0,53.0,-100.00,WNW,284,3.0,10.0,64,0.00,,,0.72,173.000000,,2013-11-02 20:02:00,
2013-11-02 16:12:00,65.0,53.0,-100.00,WNW,284,3.0,10.0,64,0.00,,,0.72,173.000000,,2013-11-02 20:12:00,
2013-11-02 16:22:00,65.0,53.0,-100.00,WNW,284,3.0,10.0,64,0.00,,,0.72,173.000000,,2013-11-02 20:22:00,
2013-11-02 17:22:00,64.0,52.0,-100.00,WNW,295,2.0,7.0,65,0.00,,,0.72,76.000000,,2013-11-02 21:22:00,
2013-11-02 18:24:00,64.0,53.0,-100.00,WSW,252,1.0,5.0,67,0.00,,,0.72,44.000000,,2013-11-02 22:24:00,
2013-11-02 20:22:00,62.0,52.0,-100.00,WSW,247,2.0,4.0,69,0.00,,,0.72,0.000000,,2013-11-03 00:22:00,
2013-11-02 21:22:00,61.0,51.0,-100.00,WSW,238,2.0,5.0,69,0.00,,,0.72,0.000000,,2013-11-03 01:22:00,